• In Italy
  • List of Countries
  • For 7 days
  • Water Temperature
  • Satellite Maps
  • Weather Map
  • Weather Widgets
  • user-avatar
    Login

    Hourly Weather Ondjiwa

    Today, 20 November, Monday

    Time Temperature Precipitation Wind Pressure Humidity
    00:00 +28°C° 0 mm 2 mps 666 mmHg 25%
    01:00 +27°C° 0 mm 2 mps 666 mmHg 27%
    02:00 +26°C° 0 mm 2 mps 666 mmHg 28%
    03:00 +26°C° 0 mm 2 mps 666 mmHg 29%
    04:00 +25°C° 0 mm 2 mps 666 mmHg 29%
    05:00 +26°C° 0 mm 2 mps 666 mmHg 27%
    06:00 +27°C° 0 mm 3 mps 667 mmHg 25%
    07:00 +28°C° 0 mm 3 mps 667 mmHg 23%
    08:00 +30°C° 0 mm 2 mps 668 mmHg 20%
    09:00 +34°C° 0 mm 2 mps 668 mmHg 17%
    10:00 +36°C° 0 mm 2 mps 669 mmHg 14%
    11:00 +37°C° 0 mm 2 mps 668 mmHg 13%
    12:00 +38°C° 0 mm 2 mps 668 mmHg 13%
    13:00 +39°C° 0 mm 2 mps 668 mmHg 12%
    14:00 +39°C° 0 mm 2 mps 667 mmHg 12%
    15:00 +38°C° 0 mm 2 mps 667 mmHg 12%
    16:00 +38°C° 0 mm 2 mps 666 mmHg 12%
    17:00 +37°C° 0 mm 2 mps 666 mmHg 14%
    18:00 +36°C° 0 mm 2 mps 666 mmHg 16%
    19:00 +34°C° 0 mm 3 mps 666 mmHg 18%
    20:00 +34°C° 0 mm 3 mps 667 mmHg 20%
    21:00 +33°C° 0 mm 4 mps 667 mmHg 22%
    22:00 +32°C° 0 mm 5 mps 668 mmHg 24%
    23:00 +30°C° 0 mm 4 mps 667 mmHg 24%

    Tomorrow, 21 November, Tuesday

    Time Temperature Precipitation Wind Pressure Humidity
    00:00 +29°C° 0 mm 3 mps 667 mmHg 25%
    01:00 +27°C° 0 mm 3 mps 667 mmHg 25%
    02:00 +27°C° 0 mm 3 mps 666 mmHg 26%
    03:00 +26°C° 0 mm 3 mps 666 mmHg 27%
    04:00 +25°C° 0 mm 2 mps 666 mmHg 28%
    05:00 +26°C° 0 mm 3 mps 667 mmHg 26%
    06:00 +27°C° 0 mm 3 mps 667 mmHg 24%
    07:00 +28°C° 0 mm 4 mps 668 mmHg 22%
    08:00 +30°C° 0 mm 4 mps 668 mmHg 19%
    09:00 +33°C° 0 mm 4 mps 669 mmHg 17%
    10:00 +35°C° 0 mm 4 mps 669 mmHg 14%
    11:00 +36°C° 0 mm 4 mps 668 mmHg 13%
    12:00 +37°C° 0 mm 4 mps 668 mmHg 12%
    13:00 +38°C° 0 mm 4 mps 667 mmHg 11%
    14:00 +38°C° 0 mm 4 mps 666 mmHg 11%
    15:00 +38°C° 0 mm 4 mps 666 mmHg 12%
    16:00 +38°C° 0 mm 4 mps 665 mmHg 12%
    17:00 +36°C° 0 mm 3 mps 665 mmHg 13%
    18:00 +35°C° 0 mm 3 mps 666 mmHg 14%
    19:00 +34°C° 0 mm 2 mps 666 mmHg 16%
    20:00 +33°C° 0 mm 3 mps 666 mmHg 17%
    21:00 +32°C° 0 mm 4 mps 667 mmHg 18%
    22:00 +32°C° 0 mm 4 mps 668 mmHg 19%
    23:00 +30°C° 0 mm 4 mps 667 mmHg 21%

    Day after tomorrow, 22 November, Wednesday

    Time Temperature Precipitation Wind Pressure Humidity
    00:00 +28°C° 0 mm 4 mps 667 mmHg 24%
    01:00 +27°C° 0 mm 3 mps 667 mmHg 26%
    02:00 +27°C° 0 mm 3 mps 666 mmHg 28%
    03:00 +26°C° 0 mm 3 mps 666 mmHg 30%
    04:00 +25°C° 0 mm 2 mps 666 mmHg 31%
    05:00 +26°C° 0 mm 3 mps 667 mmHg 31%
    06:00 +27°C° 0 mm 3 mps 667 mmHg 30%
    07:00 +28°C° 0 mm 4 mps 668 mmHg 29%
    08:00 +29°C° 0 mm 4 mps 668 mmHg 26%
    09:00 +32°C° 0 mm 4 mps 668 mmHg 23%
    10:00 +34°C° 0 mm 4 mps 669 mmHg 21%
    11:00 +35°C° 0 mm 4 mps 668 mmHg 19%
    12:00 +36°C° 0 mm 4 mps 667 mmHg 17%
    13:00 +37°C° 0 mm 4 mps 667 mmHg 16%
    14:00 +37°C° 0 mm 4 mps 666 mmHg 16%
    15:00 +37°C° 0 mm 4 mps 666 mmHg 16%
    16:00 +37°C° 0 mm 4 mps 665 mmHg 16%
    17:00 +35°C° 0 mm 4 mps 665 mmHg 17%
    18:00 +34°C° 0 mm 3 mps 665 mmHg 19%
    19:00 +31°C° 0 mm 2 mps 665 mmHg 21%
    20:00 +31°C° 0 mm 2 mps 665 mmHg 22%
    21:00 +30°C° 0 mm 2 mps 666 mmHg 23%
    22:00 +30°C° 0 mm 2 mps 666 mmHg 24%
    23:00 +29°C° 0 mm 3 mps 666 mmHg 24%

    23 November, Thursday

    Time Temperature Precipitation Wind Pressure Humidity
    00:00 +28°C° 0 mm 3 mps 666 mmHg 25%
    01:00 +27°C° 0 mm 3 mps 666 mmHg 25%
    02:00 +27°C° 0 mm 3 mps 665 mmHg 27%
    03:00 +26°C° 0 mm 3 mps 665 mmHg 30%
    04:00 +25°C° 0 mm 3 mps 665 mmHg 32%
    05:00 +26°C° 0 mm 3 mps 666 mmHg 33%
    06:00 +27°C° 0 mm 3 mps 666 mmHg 34%
    07:00 +27°C° 0 mm 3 mps 667 mmHg 34%
    08:00 +29°C° 0 mm 3 mps 667 mmHg 32%
    09:00 +31°C° 0 mm 3 mps 667 mmHg 30%
    10:00 +34°C° 0 mm 3 mps 667 mmHg 27%
    11:00 +35°C° 0 mm 3 mps 667 mmHg 25%
    12:00 +37°C° 0 mm 3 mps 666 mmHg 22%
    13:00 +38°C° 0 mm 2 mps 665 mmHg 20%
    14:00 +37°C° 0 mm 2 mps 665 mmHg 20%
    15:00 +37°C° 0 mm 2 mps 664 mmHg 21%
    16:00 +35°C° 0 mm 1 mps 664 mmHg 21%
    17:00 +34°C° 0.1 mm 1 mps 664 mmHg 24%
    18:00 +32°C° 0.1 mm 1 mps 664 mmHg 27%
    19:00 +31°C° 0.1 mm 2 mps 664 mmHg 30%
    20:00 +30°C° 0 mm 2 mps 665 mmHg 32%
    21:00 +30°C° 0 mm 2 mps 665 mmHg 34%
    22:00 +29°C° 0 mm 2 mps 665 mmHg 37%
    23:00 +28°C° 0 mm 2 mps 665 mmHg 37%

    24 November, Friday

    Time Temperature Precipitation Wind Pressure Humidity
    00:00 +27°C° 0 mm 3 mps 665 mmHg 37%
    01:00 +27°C° 0 mm 3 mps 665 mmHg 37%
    02:00 +26°C° 0 mm 2 mps 665 mmHg 37%
    03:00 +26°C° 0 mm 2 mps 665 mmHg 36%
    04:00 +25°C° 0 mm 2 mps 665 mmHg 36%
    05:00 +26°C° 0 mm 2 mps 665 mmHg 35%
    06:00 +26°C° 0 mm 2 mps 666 mmHg 35%
    07:00 +27°C° 0 mm 3 mps 666 mmHg 34%
    08:00 +29°C° 0 mm 2 mps 667 mmHg 31%
    09:00 +32°C° 0 mm 2 mps 667 mmHg 27%
    10:00 +35°C° 0 mm 2 mps 667 mmHg 23%
    11:00 +36°C° 0 mm 2 mps 666 mmHg 23%
    12:00 +36°C° 0 mm 1 mps 666 mmHg 22%
    13:00 +37°C° 0 mm 1 mps 665 mmHg 21%
    14:00 +37°C° 0 mm 2 mps 664 mmHg 21%
    15:00 +37°C° 0 mm 2 mps 664 mmHg 21%
    16:00 +37°C° 0 mm 2 mps 663 mmHg 20%
    17:00 +36°C° 0 mm 2 mps 663 mmHg 22%
    18:00 +35°C° 0 mm 2 mps 664 mmHg 24%
    19:00 +34°C° 0 mm 2 mps 664 mmHg 26%
    20:00 +32°C° 0.2 mm 2 mps 664 mmHg 29%
    21:00 +31°C° 0.2 mm 3 mps 665 mmHg 32%
    22:00 +30°C° 0.2 mm 4 mps 665 mmHg 36%
    23:00 +29°C° 0.2 mm 4 mps 665 mmHg 34%

    25 November, Saturday

    Time Temperature Precipitation Wind Pressure Humidity
    00:00 +28°C° 0.2 mm 3 mps 665 mmHg 33%
    01:00 +27°C° 0.2 mm 3 mps 665 mmHg 32%
    02:00 +26°C° 0 mm 3 mps 665 mmHg 30%
    03:00 +26°C° 0 mm 3 mps 665 mmHg 29%
    04:00 +25°C° 0 mm 3 mps 665 mmHg 27%
    05:00 +25°C° 0 mm 3 mps 665 mmHg 26%
    06:00 +26°C° 0 mm 3 mps 666 mmHg 24%
    07:00 +26°C° 0 mm 3 mps 666 mmHg 23%
    08:00 +28°C° 0 mm 3 mps 666 mmHg 19%
    09:00 +30°C° 0 mm 3 mps 667 mmHg 16%
    10:00 +33°C° 0 mm 3 mps 667 mmHg 13%
    11:00 +35°C° 0 mm 3 mps 666 mmHg 13%
    12:00 +36°C° 0 mm 3 mps 666 mmHg 13%
    13:00 +38°C° 0 mm 3 mps 665 mmHg 14%
    14:00 +38°C° 0 mm 3 mps 665 mmHg 14%
    15:00 +38°C° 0 mm 3 mps 664 mmHg 14%
    16:00 +38°C° 0 mm 3 mps 664 mmHg 14%
    17:00 +36°C° 0 mm 2 mps 664 mmHg 16%
    18:00 +35°C° 0 mm 2 mps 664 mmHg 18%
    19:00 +32°C° 0 mm 1 mps 664 mmHg 20%
    20:00 +31°C° 0 mm 2 mps 664 mmHg 22%
    21:00 +30°C° 0 mm 3 mps 665 mmHg 24%
    22:00 +29°C° 0 mm 4 mps 665 mmHg 27%
    23:00 +28°C° 0.1 mm 4 mps 665 mmHg 26%
    Show more